STARLINK-34585

Last updated on Sat Jul 19 2025 00:02:09 GMT+0000 (Coordinated Universal Time)

1 64779U 25147AA 25199.63191636 -.00763794 00000+0 -51045-2 0 9997 2 64779 53.1557 256.5482 0000607 134.5361 225.5710 15.76699643 2773
UTC large
Height (km)
Speed (km/s)
/
Latitude / Longitude
Inclination (degrees)
Orbital Period (minutes)
Azimuth
Elevation
Range (km)
Doppler Factor

Next 0 passes for location: London (51.5072 / 0.1276)

Sorry there are no passes over London.